Location: Newark
(19.8968°N, 89.5281°W)
Time: 18:07:54
(UTC+00:00)

ISS - Visible Passes

Search period start: 23 August 2019 00:00
Search period end: 02 September 2019 00:00
Orbit: 410 x 420 km, 51.6° (Epoch: 23 August)

Date Brightness Start Highest point End Pass type
(mag) Time Alt. Az. Time Alt. Az. Time Alt. Az.
23 Aug -3.2 10:33:16 23° SSW 10:35:02 54° SE 10:38:18 10° NE visible
24 Aug -1.4 09:47:08 21° ESE 09:47:08 21° ESE 09:49:04 10° ENE visible
25 Aug -2.8 10:33:48 29° WNW 10:34:09 30° NW 10:37:07 10° NNE visible
26 Aug -1.4 09:47:26 21° NNE 09:47:26 21° NNE 09:48:40 10° NE visible
